Temperature
12 12 12 12 12 12 12 12 12 13 13 13 13 12 12 12 12 13 13 14 15 14 14 15 15 15 15 16 16 16 16 16 16 16 16 16 16 16 16 16 16 16 16
12 12 12 12 12 12 12 12 12 12 12 12 12 12 12 12 12 12 13 13 14 14 14 14 15 15 15 15 15 16 15 16 16 16 15 15 16 16 16 16 16 16 16
11 11 11 12 12 12 12 12 12 12 12 12 12 12 12 12 12 12 12 12 13 14 14 14 14 15 15 15 15 15 15 15 16 16 16 15 15 15 16 16 16 16 16
9 10 10 10 11 11 12 12 12 12 13 12 12 12 12 12 12 12 12 12 13 13 13 13 14 14 14 15 15 15 15 15 16 16 16 15 15 16 16 16 16 16 15
7 7 8 9 9 10 11 11 11 11 12 13 13 12 12 12 12 12 12 12 12 13 13 13 14 14 14 14 14 15 15 15 15 16 16 15 15 15 15 15 15 15 15
5 5 6 7 7 8 9 10 10 10 10 11 12 12 12 12 12 12 12 12 12 13 13 13 13 13 13 14 14 14 14 14 14 15 15 15 15 15 15 15 15 15 15
4 4 4 5 6 7 8 8 9 9 9 10 10 11 11 12 12 12 12 12 12 12 13 13 13 13 13 13 14 14 14 14 14 14 14 15 14 14 14 14 14 14 14
2 2 3 3 4 5 6 7 8 8 9 9 9 9 10 10 11 12 12 13 13 12 12 12 12 12 13 13 13 13 14 14 14 14 14 14 14 14 14 14 14 14 14
1 2 2 2 2 3 4 5 6 6 7 9 9 9 9 10 10 11 12 12 12 12 12 12 12 12 13 13 13 13 13 13 14 14 14 14 14 14 14 13 13 13 13
0 1 1 1 1 2 2 3 4 5 5 6 8 8 8 9 10 10 11 11 11 11 11 12 12 12 12 13 13 13 13 13 14 14 14 14 13 13 13 13 13 13 13
-4 -2 -1 -1 -1 -0 1 1 2 3 4 5 7 7 8 8 9 10 10 10 11 11 11 11 12 12 12 12 12 13 13 13 13 13 13 13 13 13 12 12 12 13 13
-6 -5 -4 -4 -3 -2 -2 -0 1 2 4 4 5 6 7 7 8 9 9 10 10 10 10 10 11 11 12 12 12 12 12 12 12 13 13 13 12 12 12 12 12 12 12
-6 -6 -5 -5 -5 -4 -4 -3 -1 1 2 3 5 6 6 7 8 9 9 9 9 9 9 10 10 11 11 11 11 11 11 11 12 12 12 12 12 12 12 12 12 11 12
-7 -6 -6 -6 -5 -5 -4 -3 -2 -0 1 3 5 5 5 6 6 8 9 9 8 8 8 9 9 9 10 10 9 9 9 10 10 11 10 10 10 11 11 11 11 11 11
-7 -7 -6 -6 -5 -4 -3 -3 -2 -1 1 2 3 4 4 5 5 7 8 8 8 8 8 8 8 8 9 9 8 8 8 9 10 10 10 10 10 10 10 10 10 10 10
-8 -7 -6 -5 -5 -4 -3 -2 -2 -1 -0 1 2 3 4 4 5 7 8 8 8 8 8 8 8 8 8 8 8 8 8 8 9 9 9 9 9 9 9 9 9 9 9
-8 -7 -6 -5 -5 -5 -4 -3 -2 -1 -1 0 1 2 3 4 5 5 6 7 7 7 7 7 7 8 8 8 7 7 8 8 8 8 8 8 8 8 8 8 8 8 8
-8 -8 -6 -6 -5 -5 -5 -3 -2 -1 -1 0 1 2 2 2 2 3 5 6 6 6 6 7 7 7 7 7 7 7 7 7 7 7 7 7 7 7 7 7 7 7 7
-9 -8 -7 -6 -6 -6 -5 -5 -3 -2 -1 -1 -0 0 0 0 1 3 4 5 6 6 6 6 6 6 7 7 7 7 6 7 7 7 7 7 7 7 7 7 7 6 6
-9 -8 -8 -7 -6 -6 -6 -5 -5 -4 -3 -2 -1 -1 -1 -1 0 1 2 2 3 5 5 5 5 5 6 7 7 7 6 6 7 6 6 6 6 6 6 6 6 6 6
-10 -9 -9 -8 -7 -6 -6 -6 -5 -5 -5 -4 -4 -3 -2 -1 0 0 1 1 1 2 3 3 3 4 5 6 6 6 6 6 6 6 6 5 5 5 5 5 5 6 5
-11 -10 -9 -9 -8 -7 -7 -7 -7 -6 -6 -5 -5 -5 -4 -2 -2 -1 -1 -1 0 1 1 1 2 3 3 4 5 5 5 6 5 5 5 5 4 5 5 5 4 5 5
-11 -11 -10 -10 -9 -8 -8 -8 -8 -7 -7 -6 -6 -6 -5 -4 -4 -3 -2 -2 -2 -1 -0 0 1 1 2 2 3 3 3 4 4 4 4 4 3 3 4 4 3 4 4
-12 -12 -11 -11 -10 -9 -8 -8 -8 -9 -8 -8 -7 -7 -6 -6 -6 -5 -4 -4 -3 -3 -3 -2 -1 -1 -0 -0 1 2 2 2 2 3 3 3 2 2 2 2 3 3 3
-13 -12 -12 -11 -10 -10 -9 -9 -8 -9 -9 -8 -8 -8 -8 -8 -8 -7 -6 -5 -5 -5 -5 -4 -4 -4 -3 -2 -1 -0 1 1 1 1 1 1 1 1 1 1 1 1 1
-13 -13 -12 -12 -11 -10 -10 -9 -9 -9 -9 -9 -9 -8 -8 -8 -9 -9 -7 -7 -7 -6 -6 -6 -5 -5 -5 -4 -3 -3 -2 -2 -1 -1 -0 -0 -0 -1 -1 -1 -1 -1 -1
Wind_Speed
7 10 8 9 7 6 5 4 4 5 5 6 7 6 6 8 10 10 11 16 19 19 20 22 22 21 22 21 20 19 18 18 16 14 13 12 11 9 7 6 5 5 5
14 10 10 8 8 8 7 5 4 5 6 6 6 5 6 8 9 10 11 14 18 19 20 22 24 24 23 22 21 21 20 20 19 16 15 13 11 10 8 6 5 5 5
20 16 10 11 11 14 11 6 6 4 5 5 6 7 6 6 7 9 11 11 13 16 19 22 24 24 24 24 23 22 22 22 21 19 17 15 13 11 9 7 6 5 5
20 16 10 10 14 14 7 7 6 5 5 5 6 7 6 7 7 8 10 10 10 11 13 18 22 23 23 23 22 22 23 23 23 22 20 17 15 12 10 8 7 6 5
20 16 9 10 16 9 7 7 8 6 6 6 6 6 7 7 7 6 7 7 10 10 10 12 17 20 22 22 21 22 23 24 24 22 21 19 16 14 12 10 8 6 5
19 16 11 12 13 9 8 8 8 7 7 7 6 7 7 7 6 6 7 6 6 9 11 11 11 12 17 21 22 21 23 23 24 24 22 20 18 16 14 11 9 7 5
21 16 9 10 11 11 10 9 9 9 6 5 4 5 6 7 7 7 7 6 6 7 8 9 9 9 10 16 20 20 21 22 24 24 23 21 20 17 15 12 9 7 6
20 17 11 11 11 12 12 9 9 7 5 5 5 3 3 4 5 6 6 6 7 5 6 7 8 9 10 11 13 16 17 19 21 24 24 24 22 20 16 12 9 8 7
19 18 15 10 11 10 10 10 9 9 8 7 7 6 4 5 2 2 3 5 5 5 6 7 7 9 11 10 11 12 13 15 19 21 24 24 24 22 18 13 10 8 7
18 17 16 13 10 10 9 10 10 9 10 9 6 7 5 4 4 2 2 2 3 5 5 5 8 7 10 9 9 11 11 11 16 20 23 25 26 24 20 15 12 8 7
15 16 16 13 10 10 10 11 11 11 10 10 8 5 3 3 4 4 3 3 2 3 3 4 6 5 7 8 8 10 11 8 12 16 20 25 25 22 18 15 14 12 10
10 13 17 14 13 13 13 12 11 13 12 12 9 7 6 5 5 4 4 3 4 3 2 2 3 4 3 4 7 12 12 9 7 6 11 15 15 14 14 16 15 12 12
11 14 16 16 16 15 15 13 12 13 13 15 10 7 8 8 5 5 5 3 3 2 1 1 2 2 2 5 9 11 12 12 12 12 12 13 16 17 17 17 15 14 13
12 15 14 16 16 17 17 15 13 13 12 14 12 6 7 10 6 5 6 5 3 1 1 1 0 2 3 4 10 11 8 13 16 16 16 17 19 19 19 19 17 16 14
13 13 15 18 18 19 18 16 13 13 12 13 12 9 8 9 7 6 5 5 6 5 4 3 1 2 2 4 10 11 8 10 14 17 18 19 19 19 20 20 18 17 16
16 17 18 19 19 19 19 17 14 13 12 10 7 6 5 5 5 4 5 5 4 5 4 5 3 1 1 1 5 9 10 13 14 16 17 19 20 20 21 21 19 17 16
17 18 19 19 19 19 17 15 14 13 12 7 1 3 3 1 2 2 4 5 4 4 4 3 2 1 1 2 3 4 6 8 11 16 17 18 19 19 20 20 19 17 15
17 18 18 19 19 18 17 16 13 11 9 3 4 6 7 6 4 3 1 5 6 5 4 3 2 1 1 1 2 3 2 6 9 15 17 18 18 18 18 18 17 16 14
17 18 17 18 19 18 16 18 18 14 8 4 2 3 3 2 3 2 3 3 2 3 3 3 2 1 2 2 3 3 3 3 2 10 17 19 18 18 18 17 15 13 13
17 18 16 16 18 17 13 17 18 17 13 12 10 7 6 1 2 3 3 2 1 2 3 3 3 2 2 2 3 2 4 3 3 3 5 10 14 14 14 13 13 12 12
17 18 15 14 16 16 13 14 14 15 14 13 11 9 9 12 10 5 3 1 1 1 3 4 4 2 1 2 3 2 3 4 4 4 3 4 4 5 6 6 9 11 11
16 17 16 14 15 14 20 21 14 10 11 12 11 12 12 15 16 18 18 15 12 6 2 2 3 3 2 3 2 2 3 4 3 2 3 4 5 5 4 6 8 14 16
15 15 15 15 14 17 25 21 16 9 9 11 11 10 10 12 14 14 19 22 22 22 16 8 6 5 3 3 2 2 3 3 3 2 2 3 4 5 6 11 15 16 17
12 12 12 14 14 17 27 22 12 7 8 9 9 7 8 10 10 12 12 13 15 16 16 13 10 8 7 6 5 4 4 7 7 6 5 3 3 3 6 12 15 15 16
12 11 11 12 14 16 25 25 12 5 5 7 8 7 9 8 15 16 13 13 14 14 20 24 25 22 22 18 11 6 6 4 4 3 6 2 3 2 4 6 12 12 14
13 13 12 11 13 14 21 24 15 5 7 8 8 9 13 16 20 20 13 12 12 10 10 12 16 17 16 18 20 13 7 4 4 3 6 3 2 2 3 3 5 8 10
Wind_Direction
356 346 333 322 303 295 285 281 283 277 270 263 250 240 239 244 246 246 248 255 256 258 258 256 247 234 224 214 212 209 207 207 207 205 203 203 202 199 195 190 190 195 198
358 352 342 332 319 306 284 266 259 264 264 258 254 240 242 247 248 247 246 250 251 251 251 252 249 243 234 225 217 211 209 210 210 209 207 207 206 206 205 205 198 195 198
356 350 342 338 333 324 302 276 258 247 254 254 254 253 246 247 248 249 246 239 246 248 247 248 248 242 236 230 226 217 212 211 210 207 207 209 209 212 213 211 206 204 211
353 346 337 333 331 326 313 293 273 257 248 236 242 248 243 240 241 243 241 232 231 240 243 244 243 236 235 236 233 230 220 212 210 208 206 206 207 210 214 216 213 211 216
346 341 330 326 326 320 314 303 287 262 252 249 244 245 237 233 238 235 234 226 222 225 232 240 238 233 233 238 238 239 235 223 213 210 207 202 205 209 213 214 213 214 218
336 335 327 327 323 318 315 314 299 280 255 246 251 257 247 235 232 229 235 231 223 221 219 224 231 236 233 236 239 241 244 238 226 216 211 201 203 206 209 209 210 211 218
332 332 330 324 323 317 312 309 303 286 269 237 242 263 255 239 233 228 227 225 223 221 217 215 219 232 237 240 238 235 240 239 232 223 213 204 201 200 205 206 208 212 219
331 333 331 324 322 319 314 317 315 301 274 219 218 229 278 282 250 233 222 218 224 215 223 224 220 226 236 232 236 233 236 239 236 229 218 205 201 200 201 204 212 221 225
336 333 328 326 322 316 313 317 312 308 294 273 222 208 205 230 263 264 224 222 227 224 222 226 227 228 235 229 225 226 232 236 238 232 222 208 199 198 196 200 210 220 222
330 330 329 325 316 311 311 311 312 306 295 283 263 233 226 199 195 228 260 237 234 233 234 228 230 227 233 223 211 209 210 226 233 228 221 212 203 201 200 196 197 184 158
329 330 326 317 309 310 309 307 307 299 292 280 268 248 220 241 235 186 213 236 254 245 246 246 228 222 220 215 197 191 186 202 220 224 223 221 213 205 202 191 166 143 133
329 331 330 324 320 317 311 304 298 292 289 275 261 246 225 204 203 182 182 205 224 247 247 265 236 215 188 174 160 158 155 145 139 162 188 198 185 186 177 153 136 132 129
327 330 330 327 320 312 306 300 293 287 283 271 253 249 250 235 198 176 164 167 205 251 267 251 243 196 159 137 128 138 147 140 119 104 102 118 126 133 134 131 134 134 125
323 326 324 316 311 306 300 295 288 280 277 269 253 248 269 253 222 188 163 145 144 250 280 215 261 236 176 148 138 130 135 140 131 125 119 115 118 123 128 131 135 132 124
322 323 318 313 308 303 296 287 285 278 275 270 252 227 234 254 233 207 153 147 150 172 208 206 175 241 190 147 143 137 138 139 135 135 136 134 130 132 130 129 129 127 122
325 324 321 316 312 308 302 292 282 279 274 272 246 211 196 228 224 220 156 136 138 145 170 183 193 239 182 123 142 140 147 142 138 133 135 137 137 136 135 134 131 129 124
322 323 324 322 324 325 321 310 290 268 262 241 146 28 37 257 145 185 142 140 134 128 146 161 164 197 100 141 113 119 139 129 135 139 142 143 143 143 142 140 138 138 135
321 323 326 329 332 338 346 346 337 315 282 234 93 56 30 7 24 8 214 160 142 143 134 148 175 164 117 156 115 132 141 150 146 154 152 151 152 154 153 149 147 146 143
325 327 332 336 337 342 1 5 3 359 348 350 48 100 55 358 316 39 19 28 83 120 126 136 154 188 143 96 88 79 71 65 111 169 163 162 164 164 161 158 157 156 153
329 328 335 341 340 339 3 17 9 8 9 23 20 31 23 69 181 77 57 36 21 124 140 135 145 186 169 100 95 117 115 86 57 58 147 168 165 166 167 169 165 164 162
333 333 333 344 346 341 356 28 16 7 4 18 14 24 27 32 46 88 109 91 100 147 157 151 147 174 149 105 116 115 125 103 57 36 63 42 75 91 99 133 150 143 137
337 337 337 341 345 340 355 23 26 10 2 13 15 18 22 26 38 53 67 70 67 64 85 122 137 127 69 45 60 93 121 119 120 31 73 47 39 65 48 98 118 121 115
337 339 337 339 340 341 355 8 26 19 17 20 19 20 27 29 36 43 50 51 54 56 61 63 75 82 82 33 12 81 81 85 104 53 69 82 30 57 43 83 101 105 106
334 335 334 338 338 346 352 4 29 27 32 27 22 27 35 35 53 58 52 45 44 47 57 63 69 74 79 65 48 56 79 98 80 46 27 97 66 34 55 59 74 86 89
337 337 336 338 341 347 351 355 26 17 19 17 11 22 64 53 61 61 55 49 43 40 49 59 60 59 61 61 56 57 58 101 107 50 18 46 68 47 46 49 37 64 74
339 339 340 344 344 344 350 356 28 18 25 20 11 15 48 66 66 62 57 54 49 47 53 55 55 50 47 48 52 49 43 57 77 87 17 24 67 48 47 31 37 34 53
Height
1509 1508 1506 1505 1504 1503 1503 1503 1503 1503 1504 1504 1504 1503 1503 1503 1503 1503 1503 1505 1507 1509 1511 1514 1516 1519 1521 1522 1524 1527 1529 1531 1533 1535 1537 1540 1541 1543 1545 1546 1548 1549 1551
1506 1504 1502 1502 1500 1499 1498 1497 1498 1498 1498 1498 1498 1498 1498 1499 1499 1499 1498 1499 1501 1503 1506 1508 1510 1513 1516 1518 1519 1522 1525 1528 1530 1532 1534 1537 1539 1541 1542 1544 1545 1547 1548
1503 1500 1498 1497 1496 1494 1492 1492 1492 1492 1492 1492 1492 1492 1493 1493 1494 1494 1494 1494 1495 1496 1499 1502 1504 1507 1510 1512 1514 1517 1520 1523 1526 1529 1531 1534 1536 1538 1540 1541 1542 1544 1546
1498 1495 1493 1491 1489 1488 1487 1485 1485 1485 1485 1484 1485 1486 1486 1487 1488 1489 1489 1489 1489 1490 1492 1495 1498 1501 1504 1507 1510 1512 1515 1518 1521 1524 1527 1530 1532 1535 1537 1538 1540 1541 1543
1492 1489 1487 1485 1483 1481 1479 1478 1477 1478 1477 1477 1477 1478 1479 1480 1480 1481 1482 1483 1484 1485 1486 1488 1491 1495 1498 1501 1504 1507 1510 1513 1516 1519 1522 1525 1528 1531 1533 1535 1537 1539 1540
1487 1483 1479 1478 1476 1474 1471 1470 1470 1470 1470 1471 1470 1470 1471 1472 1473 1474 1475 1476 1477 1479 1480 1482 1485 1488 1491 1495 1497 1501 1504 1507 1510 1513 1517 1520 1524 1527 1530 1532 1534 1535 1537
1481 1477 1474 1471 1469 1467 1464 1463 1462 1463 1463 1465 1465 1463 1464 1465 1465 1466 1468 1469 1471 1473 1475 1476 1479 1482 1485 1488 1491 1494 1497 1500 1504 1507 1510 1514 1518 1522 1526 1528 1530 1532 1533
1477 1473 1468 1465 1463 1461 1458 1456 1456 1455 1456 1458 1459 1459 1458 1458 1456 1458 1460 1462 1464 1466 1468 1470 1472 1475 1478 1480 1483 1487 1490 1493 1496 1500 1504 1508 1512 1516 1520 1523 1526 1527 1529
1471 1468 1464 1460 1457 1455 1451 1449 1449 1449 1448 1449 1451 1454 1453 1451 1450 1451 1452 1453 1456 1458 1461 1463 1465 1467 1470 1473 1476 1479 1482 1485 1489 1493 1498 1502 1505 1509 1513 1517 1520 1523 1525
1468 1463 1459 1455 1452 1449 1444 1442 1441 1441 1440 1440 1443 1445 1447 1447 1447 1446 1446 1447 1449 1451 1453 1456 1458 1460 1462 1464 1468 1471 1474 1478 1482 1487 1491 1495 1499 1503 1506 1510 1513 1516 1519
1462 1457 1453 1450 1446 1441 1437 1435 1435 1434 1432 1433 1435 1437 1438 1439 1440 1441 1441 1442 1444 1445 1447 1449 1451 1453 1456 1458 1460 1463 1467 1470 1475 1479 1484 1489 1493 1497 1501 1504 1507 1509 1513
1461 1455 1449 1443 1438 1434 1431 1428 1426 1425 1424 1424 1425 1427 1429 1431 1432 1433 1435 1437 1439 1440 1441 1442 1444 1447 1450 1452 1453 1456 1459 1462 1467 1471 1476 1482 1485 1490 1494 1498 1501 1504 1507
1458 1451 1444 1438 1433 1429 1425 1421 1417 1416 1416 1416 1416 1417 1419 1422 1425 1426 1429 1431 1433 1435 1435 1437 1439 1441 1445 1447 1449 1451 1453 1457 1461 1464 1470 1475 1479 1484 1488 1493 1496 1500 1503
1459 1452 1445 1438 1431 1425 1419 1414 1409 1408 1407 1406 1406 1409 1410 1413 1418 1419 1421 1424 1428 1430 1431 1433 1435 1438 1441 1443 1446 1448 1451 1455 1458 1462 1467 1472 1476 1480 1484 1488 1493 1496 1500
1458 1452 1444 1435 1428 1421 1415 1409 1404 1401 1399 1398 1397 1400 1403 1404 1409 1412 1413 1417 1422 1424 1425 1429 1433 1435 1438 1441 1444 1448 1452 1455 1458 1461 1465 1469 1472 1477 1480 1484 1489 1493 1496
1453 1447 1441 1433 1425 1417 1409 1403 1398 1394 1392 1391 1391 1392 1395 1398 1400 1403 1406 1409 1414 1417 1420 1425 1429 1432 1435 1439 1442 1447 1451 1454 1456 1459 1462 1466 1470 1473 1476 1481 1485 1489 1492
1448 1442 1436 1429 1421 1413 1404 1396 1392 1388 1386 1386 1386 1386 1388 1391 1393 1397 1401 1404 1407 1411 1415 1420 1425 1429 1432 1437 1440 1444 1448 1450 1453 1456 1460 1464 1468 1471 1475 1478 1482 1486 1489
1445 1440 1434 1427 1419 1410 1401 1391 1386 1383 1383 1384 1383 1383 1382 1386 1391 1394 1398 1401 1402 1406 1411 1416 1421 1426 1430 1433 1437 1441 1444 1448 1451 1454 1458 1462 1466 1470 1473 1476 1479 1483 1486
1443 1436 1431 1425 1418 1410 1402 1391 1384 1379 1379 1381 1383 1382 1382 1384 1387 1390 1393 1395 1398 1402 1406 1411 1416 1422 1426 1429 1432 1437 1441 1446 1449 1453 1457 1461 1465 1468 1471 1474 1477 1480 1483
1441 1435 1429 1424 1418 1411 1403 1396 1390 1383 1379 1376 1376 1377 1378 1381 1383 1385 1389 1393 1396 1398 1402 1405 1412 1417 1421 1425 1429 1434 1438 1442 1446 1450 1455 1459 1463 1466 1469 1472 1475 1478 1480
1440 1434 1429 1423 1418 1412 1406 1399 1395 1391 1386 1381 1380 1375 1376 1378 1381 1382 1386 1389 1391 1394 1397 1400 1405 1411 1415 1418 1424 1428 1433 1437 1441 1446 1450 1454 1458 1462 1465 1469 1471 1474 1477
1439 1434 1429 1424 1419 1414 1409 1404 1397 1394 1391 1386 1383 1380 1378 1379 1379 1379 1381 1384 1386 1391 1393 1395 1400 1406 1410 1413 1419 1423 1426 1431 1437 1442 1445 1449 1453 1457 1461 1466 1467 1469 1473
1438 1434 1429 1425 1420 1415 1411 1406 1401 1396 1392 1389 1386 1385 1383 1382 1381 1380 1382 1384 1385 1388 1390 1392 1396 1402 1407 1410 1414 1417 1419 1425 1431 1436 1440 1444 1448 1452 1456 1460 1464 1466 1468
1439 1434 1430 1426 1421 1416 1412 1408 1404 1400 1397 1394 1392 1389 1388 1387 1389 1388 1387 1387 1385 1386 1388 1392 1395 1398 1401 1403 1409 1412 1415 1421 1427 1431 1435 1438 1443 1446 1449 1454 1458 1462 1463
1440 1436 1432 1427 1422 1418 1414 1410 1405 1402 1400 1398 1395 1394 1393 1392 1391 1389 1387 1386 1387 1389 1391 1393 1395 1397 1400 1403 1405 1407 1411 1417 1422 1426 1429 1433 1437 1441 1444 1448 1453 1456 1458
1443 1438 1433 1429 1424 1419 1415 1412 1409 1405 1402 1401 1399 1397 1395 1393 1391 1389 1388 1389 1392 1394 1395 1396 1396 1398 1400 1403 1405 1408 1410 1414 1417 1421 1425 1430 1433 1437 1439 1443 1449 1451 1453